GFSNW_con_lsi_159.txt.gz
Lid_Strength_Index
3 3 3 3 4 5 6 6 9 4 4 9 10 13 10 9 9 7 8 8 9 10 10 12 12 12 10 7 8 12 11 12 16 14 10 9 10 13 13 18 19 17 18 17
3 3 3 3 4 5 8 8 7 4 5 13 12 10 9 8 9 8 9 9 8 8 11 14 11 11 8 8 9 11 11 14 18 16 12 10 12 11 12 13 14 18 20 17
3 2 2 2 3 4 7 7 10 7 7 7 9 10 10 11 8 8 8 8 7 9 11 10 12 11 9 8 8 7 8 14 15 18 15 13 15 13 12 13 17 17 16 14
2 2 1 2 3 4 6 6 8 8 12 11 9 9 9 11 12 9 8 9 8 10 15 12 12 10 10 9 8 10 11 15 14 13 13 13 13 13 13 15 14 17 15 15
2 1 1 2 3 5 5 7 8 7 9 8 9 9 11 11 11 11 11 10 8 9 12 11 13 11 11 12 10 11 11 15 13 15 13 13 14 13 13 13 13 14 13 15
2 1 1 2 3 5 5 4 5 7 9 9 10 10 10 10 10 9 9 8 9 10 9 7 8 8 9 10 11 12 13 15 15 17 13 14 17 15 15 14 13 13 16 14
3 2 1 2 4 5 7 6 6 8 11 10 10 9 9 9 9 11 9 7 10 7 4 6 7 8 8 9 9 9 14 15 15 17 17 23 15 13 13 14 13 12 13 12
2 2 2 2 4 5 7 7 7 8 11 9 9 9 10 9 9 10 9 7 6 5 7 11 12 12 12 11 9 10 10 14 16 18 20 16 15 14 15 16 16 12 14 13
3 2 2 2 3 5 6 7 6 7 10 10 8 9 9 11 12 10 9 5 5 6 9 12 15 17 14 14 13 9 10 11 16 16 19 20 16 13 12 13 18 12 14 14
3 3 2 2 3 4 6 7 6 6 9 7 7 10 10 9 10 12 10 8 8 7 12 14 16 16 12 16 16 15 15 16 18 17 18 15 13 13 12 20 18 14 13 14
4 3 3 2 2 4 6 7 6 7 8 7 6 6 9 9 10 13 10 11 10 11 13 13 15 15 14 14 12 15 16 17 17 17 18 19 12 14 18 15 14 13 13 14
4 4 3 2 2 3 4 8 5 6 7 8 6 6 6 6 7 10 9 10 10 10 12 11 13 15 13 14 16 11 16 16 17 17 17 12 12 14 13 13 15 14 15 13
5 4 3 3 2 3 5 7 7 7 8 8 7 7 5 4 4 5 10 8 7 9 7 11 13 15 13 15 15 13 12 15 16 16 14 13 12 12 13 13 14 14 13 10
4 4 3 2 2 3 4 7 6 7 8 11 9 5 7 4 4 4 5 7 5 6 7 11 13 15 11 13 12 13 13 14 15 15 13 13 12 13 14 12 12 14 12 11
4 4 3 2 2 3 4 5 5 6 8 11 10 8 6 5 6 5 4 7 8 8 10 11 13 11 11 10 11 13 13 15 16 17 14 14 15 13 12 12 12 13 12 12
4 4 3 2 3 4 6 8 4 5 6 9 13 7 7 5 4 6 5 6 7 7 9 9 9 8 10 12 15 12 10 10 11 13 12 11 12 12 11 11 11 11 11 11
4 3 2 3 3 5 7 8 6 4 5 9 11 10 5 4 4 5 6 5 7 7 8 9 8 8 9 11 15 12 10 10 10 10 11 12 12 12 11 10 10 10 10 10
4 3 3 4 4 4 6 5 4 4 6 7 12 10 8 4 6 7 4 6 7 7 7 7 9 8 9 13 11 10 9 10 10 10 9 10 10 11 11 10 10 11 11 11
3 4 4 4 6 8 6 1 2 4 6 10 9 11 11 4 6 6 6 6 10 6 9 9 8 10 12 11 9 10 10 10 10 9 9 9 10 11 12 11 11 12 11 11
3 4 7 8 6 2 3 5 7 8 7 7 10 7 9 6 7 8 8 7 10 12 9 7 10 11 8 8 9 9 9 9 9 10 10 10 10 11 12 12 11 11 11 11
4 6 7 3 1 4 6 8 9 9 10 8 8 9 10 6 10 10 7 10 10 12 11 11 12 12 9 8 9 9 9 8 8 8 8 8 9 10 11 11 12 11 12 11
4 4 3 3 5 7 9 10 8 9 10 7 8 7 7 7 6 9 8 10 10 13 8 11 13 10 7 8 9 9 8 8 8 8 8 9 8 8 10 10 11 11 12 12
3 6 7 7 8 11 12 13 11 10 7 6 7 8 6 7 6 8 9 11 12 8 12 13 11 8 7 7 8 8 8 8 8 7 9 8 9 8 8 10 10 11 11 11
8 8 11 11 11 10 9 9 8 6 6 6 6 7 8 7 8 8 11 9 9 13 14 13 10 8 7 7 8 8 9 8 8 8 8 9 9 9 8 8 9 9 10 10
9 8 12 11 8 7 6 5 5 5 4 5 7 7 7 8 9 8 9 11 13 12 14 11 8 7 7 7 8 8 8 8 7 8 9 9 9 9 9 8 8 9 9 9
7 8 9 7 7 8 6 6 6 4 5 5 6 9 10 11 10 11 11 11 13 12 9 7 7 7 7 7 7 7 7 7 8 8 8 8 9 9 10 9 9 9 9 9
7 8 5 6 6 6 6 5 5 4 6 9 8 11 11 8 10 11 9 11 10 8 7 6 6 6 6 6 6 6 6 6 7 8 8 8 8 9 9 10 9 9 8 8

GFSNW_con_lsi_162.txt.gz
Lid_Strength_Index
3 3 3 3 4 5 7 10 11 6 7 12 13 14 10 8 9 8 9 10 10 11 11 12 12 12 11 8 9 12 11 13 16 15 11 10 11 13 13 18 18 17 18 17
3 3 3 3 4 5 10 11 10 6 7 15 14 11 9 8 9 9 9 11 10 10 11 13 11 10 8 8 10 11 11 14 17 16 14 10 12 11 11 13 14 17 19 17
4 3 3 3 3 4 9 10 12 10 11 11 13 12 11 10 7 9 9 11 11 11 12 10 12 11 9 8 9 7 8 14 15 18 15 13 15 14 12 13 17 17 16 15
4 3 2 2 3 4 8 9 11 10 14 11 11 12 11 11 12 9 10 12 12 13 17 13 12 10 10 9 8 10 11 15 14 13 13 13 14 14 13 15 14 17 15 15
4 3 2 2 3 4 7 9 9 9 11 11 12 11 13 12 11 11 12 13 11 11 14 13 13 11 11 12 11 12 11 14 13 15 13 13 15 13 15 14 14 14 14 15
3 3 3 2 3 5 9 6 8 8 11 12 13 13 11 11 11 10 9 10 11 11 9 8 8 8 9 10 12 12 12 15 16 17 14 15 17 16 16 15 13 14 17 14
4 3 2 2 3 5 8 8 8 10 12 11 11 10 10 10 10 11 10 9 11 9 6 6 8 9 9 10 10 10 14 15 15 17 17 23 16 13 13 15 14 13 14 13
3 3 2 2 2 5 7 8 9 9 12 11 10 9 10 10 11 11 11 8 8 8 9 12 13 13 12 11 10 11 10 14 16 18 19 16 15 14 16 16 17 13 15 14
4 3 3 2 2 4 7 8 7 9 10 12 9 10 10 12 14 13 10 8 7 9 12 13 17 18 14 15 13 9 10 11 15 16 19 22 16 13 12 13 19 13 14 14
5 4 4 3 2 3 6 7 7 9 10 9 9 11 11 10 13 14 12 9 10 11 15 15 16 16 13 17 16 15 15 15 18 19 19 17 14 13 12 21 19 14 14 14
5 5 4 4 3 2 6 7 6 8 9 9 7 7 10 10 11 16 12 13 12 12 15 13 13 15 15 16 14 17 15 17 19 18 19 20 12 13 17 15 14 14 14 14
5 5 4 4 3 3 4 8 6 7 10 10 7 6 6 7 7 11 12 13 12 12 14 11 12 13 13 16 17 11 16 15 16 17 17 12 12 13 12 13 15 14 14 14
5 5 4 4 3 2 4 7 7 8 10 10 10 9 6 6 6 6 12 11 10 12 9 11 11 14 12 15 14 14 12 14 16 16 14 14 12 11 12 13 14 14 14 13
5 5 4 4 3 2 3 7 7 8 10 13 11 6 6 6 6 6 6 8 8 10 9 12 11 13 10 13 12 13 12 14 14 15 13 13 12 12 12 12 11 13 12 12
5 5 4 3 2 2 3 5 5 6 10 11 11 8 6 7 8 7 6 8 10 11 11 12 12 10 10 10 11 12 13 14 15 16 13 14 14 11 11 11 11 12 12 12
5 4 4 3 3 4 6 8 6 6 7 11 13 10 9 7 7 7 6 7 10 10 10 11 9 7 8 12 13 12 11 10 10 13 11 11 12 10 10 11 11 10 11 11
4 4 3 2 3 5 7 8 6 4 5 9 12 13 8 6 6 8 7 7 9 9 9 10 9 8 8 10 14 14 11 9 10 10 10 11 12 13 10 10 10 9 10 10
4 2 2 3 3 4 9 7 4 4 7 8 12 12 10 6 9 9 6 8 7 8 9 8 9 8 8 12 11 11 10 10 10 10 9 10 11 11 10 10 10 11 11 11
3 3 3 5 6 8 9 2 2 4 6 10 9 12 14 6 6 6 6 6 10 7 10 9 8 10 12 10 11 11 11 10 10 9 9 10 11 12 11 11 11 11 12 11
3 5 7 9 8 3 2 5 7 8 8 7 10 8 11 9 10 10 9 8 10 12 10 7 10 11 9 9 9 10 10 9 10 11 10 10 12 12 12 11 11 11 12 11
5 7 8 7 2 6 6 9 9 9 11 8 8 9 11 9 11 11 9 10 10 13 11 11 12 13 10 9 9 10 9 8 10 9 9 9 11 11 12 11 11 11 11 11
5 6 4 6 7 8 9 10 9 9 11 9 11 10 10 10 8 11 10 11 10 14 9 11 14 11 9 8 9 9 9 10 10 9 8 9 10 11 11 11 12 11 11 10
6 7 8 10 10 12 13 13 11 11 8 7 8 8 7 8 8 10 9 12 12 9 12 13 11 9 8 8 8 9 8 9 9 8 8 9 10 10 11 11 11 11 11 11
9 9 13 12 13 11 11 10 9 7 7 7 6 8 8 7 9 9 11 10 10 14 16 14 11 10 7 7 7 8 9 9 9 8 8 8 9 10 10 10 10 11 11 11
10 9 13 12 9 9 8 8 8 7 5 6 7 7 8 9 10 9 10 11 13 13 13 11 10 9 8 8 7 8 9 9 9 8 10 9 8 9 10 10 10 10 10 10
8 10 11 9 11 10 9 9 10 7 7 7 6 9 10 11 10 12 12 12 13 12 10 9 9 9 8 7 6 7 7 7 9 9 10 10 10 9 9 9 9 9 9 10
8 10 8 8 9 9 9 9 10 8 8 10 9 11 12 9 12 12 10 11 11 9 9 9 9 9 9 5 5 5 6 7 9 9 9 10 10 10 10 10 9 9 9 10

GFSNW_con_lsi_165.txt.gz
Lid_Strength_Index
5 5 4 4 4 5 9 11 12 6 7 12 14 14 11 9 9 8 9 10 11 12 12 14 12 12 10 7 9 12 10 13 16 15 11 10 12 13 13 18 18 17 18 18
5 5 5 4 4 5 10 11 11 6 7 15 15 12 10 9 9 10 10 11 10 11 13 17 12 11 8 8 9 10 10 14 18 16 14 11 13 12 12 13 14 17 19 18
5 5 5 4 4 4 9 10 12 10 11 12 13 14 12 11 8 10 10 11 11 12 14 13 14 11 8 7 8 6 8 13 15 18 15 13 14 13 12 13 17 16 16 15
6 5 4 4 3 4 8 9 11 11 14 12 12 13 12 12 12 10 11 12 12 14 19 15 13 11 10 9 8 10 10 15 15 13 12 12 13 13 13 14 14 17 15 15
5 5 4 3 2 4 7 9 9 11 12 11 12 12 14 13 11 12 12 13 11 11 16 14 14 11 11 13 11 11 10 15 13 15 13 13 14 13 13 15 15 14 14 15
5 4 3 2 2 4 7 8 9 10 11 13 13 13 12 11 10 10 10 11 12 12 11 9 9 8 9 10 11 12 12 14 16 17 15 15 19 18 16 15 14 15 18 15
4 4 3 2 2 4 7 8 9 11 14 12 12 10 10 11 10 12 10 12 12 9 7 8 9 10 10 10 10 11 13 15 14 17 18 23 17 13 13 14 14 13 14 14
5 5 4 3 3 3 7 7 9 10 14 11 10 10 11 10 10 11 12 10 8 8 10 13 14 14 12 11 10 12 11 14 16 17 20 16 15 14 15 16 17 13 14 14
5 5 4 4 3 3 6 7 7 9 11 12 9 11 10 12 13 13 11 9 8 10 12 14 17 18 14 15 13 9 10 12 15 16 19 24 16 13 12 13 19 13 14 14
5 5 5 5 4 3 5 7 7 9 10 9 10 12 12 10 13 15 13 11 11 11 16 18 15 16 13 16 16 18 18 15 17 17 19 18 13 12 12 20 18 14 14 14
6 5 5 5 4 4 5 6 6 8 10 9 8 8 10 11 12 12 11 13 14 14 16 17 15 15 15 15 14 18 16 16 21 18 20 21 11 12 16 15 14 14 14 14
5 5 5 4 4 4 3 7 6 7 10 10 9 7 7 7 7 9 11 13 13 12 13 12 12 13 14 14 17 12 15 14 15 16 16 12 11 12 10 12 14 14 14 13
5 5 5 4 4 3 3 7 7 8 10 11 11 10 8 6 6 6 12 13 10 12 11 12 11 14 13 14 13 13 11 13 15 16 13 13 11 10 10 11 12 12 13 12
5 5 5 5 4 3 2 7 6 8 10 13 12 7 7 6 7 7 6 9 9 10 11 10 11 13 11 11 11 12 12 14 14 15 13 12 12 11 10 11 11 12 11 11
5 5 5 4 3 2 4 5 5 6 9 12 12 9 7 8 7 7 7 9 10 10 10 11 12 10 11 9 9 12 12 14 15 15 12 13 13 11 10 11 11 11 12 12
5 4 4 3 2 4 6 9 6 5 6 11 14 9 9 8 8 8 8 7 10 11 11 10 9 8 10 12 13 11 12 11 10 12 11 11 10 10 10 11 10 10 11 11
4 4 3 2 2 5 7 8 6 4 5 9 11 12 9 7 7 7 8 9 9 10 10 9 9 9 9 10 13 11 10 11 9 9 10 11 11 12 10 10 9 10 11 10
4 3 2 2 3 4 8 7 4 3 7 7 11 12 11 8 9 10 7 9 9 9 9 8 9 8 8 12 9 10 10 10 10 9 9 10 10 10 10 9 10 12 12 10
3 2 2 4 6 7 7 3 3 4 6 9 10 12 14 8 8 8 7 7 10 7 9 9 8 10 12 10 9 10 9 11 10 9 9 10 11 11 11 11 11 12 11 10
3 5 7 9 8 3 3 5 7 8 7 7 10 8 11 10 11 11 9 8 10 12 9 7 10 11 8 9 8 8 10 10 10 12 10 10 11 11 12 12 11 11 11 11
5 7 9 8 4 7 7 9 9 8 10 8 9 9 11 8 13 13 10 10 10 13 11 12 12 13 11 9 9 9 10 9 10 10 10 10 11 11 11 11 11 10 11 11
7 7 6 6 7 9 10 10 8 9 11 10 10 10 9 9 8 12 10 11 10 14 9 12 14 12 10 9 9 10 9 10 10 10 10 10 10 11 11 12 11 11 11 10
8 9 10 10 10 14 14 13 11 11 8 7 7 8 7 7 8 11 11 12 12 8 12 13 12 11 9 8 9 9 8 10 9 9 9 10 10 10 11 11 10 10 11 10
10 12 16 13 14 12 11 11 10 8 8 8 8 8 8 7 9 9 12 10 10 13 16 14 11 11 9 8 8 9 9 10 9 9 9 10 11 11 11 11 10 11 11 10
10 11 14 13 10 10 9 8 9 9 8 9 9 8 8 9 10 9 10 12 13 12 14 11 10 10 9 9 8 9 9 9 9 9 9 10 10 10 11 10 10 10 10 10
8 10 11 10 10 10 10 10 11 9 9 9 8 9 10 11 10 12 13 13 13 12 10 9 10 10 9 8 7 7 7 8 10 9 8 9 10 10 10 10 10 10 10 10
9 10 9 10 12 12 12 11 11 10 11 12 11 13 12 9 12 12 10 12 10 8 10 10 10 10 9 7 6 6 7 9 10 10 10 10 9 9 10 11 10 10 10 11

GFSNW_con_lsi_168.txt.gz
Lid_Strength_Index
6 6 5 5 4 5 9 12 13 7 8 12 15 15 12 9 9 9 10 11 12 13 13 14 13 13 12 8 9 11 10 12 16 14 11 11 12 14 13 18 18 17 18 17
6 6 5 5 5 5 10 12 12 7 7 14 15 13 11 10 10 11 11 12 11 12 14 17 13 11 9 9 9 11 10 14 17 16 15 12 13 12 11 13 14 17 19 17
6 6 5 5 4 4 10 10 12 10 10 12 13 14 13 12 9 11 11 12 12 13 14 13 14 12 10 9 9 6 7 13 15 18 15 13 14 13 12 13 17 17 16 15
6 6 5 4 4 3 8 10 12 11 14 12 13 14 13 13 13 11 11 13 13 14 19 15 14 12 11 10 8 10 10 15 13 13 12 12 13 13 13 14 14 17 15 16
6 5 4 3 3 4 7 10 11 11 12 12 13 13 14 13 12 12 13 14 12 13 16 14 14 12 12 14 12 12 9 14 13 15 12 13 14 13 13 14 14 15 15 16
5 4 3 3 3 4 8 7 9 11 12 13 14 13 13 11 10 10 11 12 13 14 12 10 9 9 9 10 13 11 11 13 15 17 14 15 18 18 16 15 14 14 17 14
5 5 4 3 3 3 7 8 9 12 15 13 12 11 10 11 11 11 10 10 14 11 8 9 10 11 10 10 10 9 12 14 14 16 17 23 16 13 13 14 14 13 13 13
5 5 5 4 4 3 6 7 8 10 14 12 11 11 11 10 10 11 11 11 10 9 11 14 15 14 13 12 11 12 9 13 15 17 19 17 15 14 15 15 16 13 15 14
6 5 5 5 5 4 5 6 7 9 11 13 10 11 11 13 14 13 12 9 9 11 13 15 17 17 15 15 14 10 10 11 14 15 18 22 17 12 11 12 20 13 14 15
6 5 5 5 5 4 5 7 7 9 11 10 10 11 12 11 10 12 13 11 11 12 17 18 18 16 14 16 16 19 18 19 17 17 18 16 13 11 11 20 18 13 14 14
6 5 5 5 5 5 5 6 6 7 10 9 9 8 10 9 11 12 11 11 14 15 17 17 16 17 16 15 15 20 17 15 19 17 20 21 11 12 16 13 12 13 13 14
6 5 5 5 4 4 4 7 6 6 9 10 9 8 7 7 8 9 9 12 14 13 15 14 13 14 13 14 17 12 15 12 15 15 16 12 11 12 10 10 12 13 14 13
6 5 5 5 4 4 4 6 6 8 10 10 12 11 8 7 7 6 12 13 10 12 11 13 11 14 12 15 14 14 11 11 14 15 13 13 11 10 9 10 11 12 12 12
6 5 5 5 4 4 3 6 6 7 9 13 12 8 8 6 7 7 7 9 10 11 10 11 10 12 10 12 12 12 10 12 14 14 12 12 11 11 10 10 10 11 11 11
6 5 5 5 3 3 4 5 5 5 8 12 11 8 8 8 8 8 8 8 10 9 10 10 11 9 10 10 10 12 10 12 14 15 12 12 13 10 11 11 11 10 11 12
6 5 4 4 2 3 6 8 5 4 5 10 13 10 9 8 8 8 8 8 11 10 9 9 8 8 9 12 13 11 9 10 9 11 10 10 10 9 10 10 10 10 11 11
5 4 4 4 2 4 7 9 5 3 4 8 11 11 9 8 8 8 9 9 9 9 9 9 9 9 8 10 13 12 9 9 9 9 9 11 10 11 10 10 9 10 10 10
4 4 3 3 2 5 8 5 3 2 6 6 11 11 11 8 10 10 8 8 7 8 8 7 9 8 8 12 10 9 8 9 9 9 9 10 9 10 11 10 10 11 11 11
3 3 3 4 5 7 6 2 3 5 6 9 9 12 13 8 10 9 7 6 10 7 9 9 8 10 12 10 9 9 8 9 10 9 9 10 10 11 11 11 11 11 11 11
3 5 8 11 7 2 3 5 7 8 7 7 10 8 11 9 9 10 12 8 10 12 10 7 10 11 8 8 8 8 8 9 9 11 11 10 10 11 11 11 11 10 11 12
6 8 9 8 5 8 9 10 10 9 10 8 8 9 10 6 11 10 11 12 10 13 11 11 12 13 11 9 9 9 8 9 9 9 10 10 10 11 11 11 11 11 11 11
8 8 6 7 8 9 12 11 9 9 11 9 9 9 8 7 7 11 11 12 10 14 9 12 14 11 10 9 9 10 9 9 9 9 10 10 11 10 11 11 11 10 11 11
9 9 10 11 12 14 14 15 14 11 8 8 9 10 8 8 7 10 10 12 13 9 12 13 12 11 9 9 9 9 8 9 9 9 10 10 11 11 11 11 11 10 10 10
11 13 17 14 14 13 13 13 11 8 8 9 11 11 10 8 9 9 12 10 10 13 15 14 10 10 9 9 9 9 9 9 9 10 10 11 11 11 10 10 10 10 11 11
12 12 16 13 11 11 11 10 11 9 10 12 12 11 9 9 10 10 10 13 14 12 13 10 9 9 9 9 9 9 8 9 9 9 10 10 10 11 11 10 10 10 10 10
10 10 13 12 11 12 12 11 12 11 11 11 12 13 11 11 10 12 13 13 14 12 9 8 9 10 10 9 8 8 7 7 9 9 9 10 10 11 11 10 10 9 10 11
11 12 11 13 13 12 12 12 12 11 12 14 13 14 14 9 12 12 10 12 11 9 7 9 10 10 10 8 7 7 7 9 9 9 9 10 9 9 10 11 10 10 10 10

GFSNW_con_lsi_171.txt.gz
Lid_Strength_Index
5 5 5 5 5 5 7 7 9 4 5 8 10 10 10 9 8 8 9 9 10 11 11 12 12 11 9 7 7 10 8 11 15 12 9 8 10 11 12 17 17 16 17 16
5 5 5 5 4 5 7 8 8 3 3 10 9 9 10 9 9 9 10 11 10 10 11 13 11 10 8 7 8 9 8 13 17 14 11 9 11 11 11 12 13 17 19 15
5 5 5 4 4 4 6 6 9 6 6 7 9 10 10 10 8 9 9 10 10 11 12 10 11 11 9 7 7 6 7 12 15 17 14 11 13 12 11 13 17 15 15 13
5 5 5 4 3 3 5 6 9 8 10 9 9 10 10 11 11 9 9 10 11 12 14 12 12 10 10 8 7 7 8 14 12 12 11 11 12 12 12 13 13 17 14 13
5 5 4 3 3 4 5 7 8 7 9 10 10 10 10 11 10 10 10 11 9 10 12 11 13 11 10 11 9 9 9 14 12 14 11 11 13 11 11 12 12 13 13 13
5 5 5 4 4 4 6 6 6 8 10 10 10 10 10 10 9 8 8 9 9 10 10 8 8 8 8 8 9 10 11 13 14 16 12 12 15 13 13 13 13 13 16 12
5 5 5 5 4 4 5 7 7 9 12 10 10 10 10 10 9 10 8 8 9 9 6 7 7 8 8 8 8 8 11 13 13 16 14 19 13 11 12 13 13 11 12 12
6 6 5 5 5 4 5 5 7 8 12 10 10 9 9 9 9 9 9 8 8 7 8 10 11 10 10 10 9 9 8 12 15 17 16 13 12 13 14 15 15 11 14 13
6 6 5 5 5 4 4 4 5 8 10 11 9 9 10 10 11 10 9 7 7 7 10 11 14 14 13 13 11 8 9 9 14 15 18 19 13 12 10 12 17 12 12 12
6 6 5 5 5 5 5 5 5 8 10 8 8 10 10 9 10 12 10 9 9 8 10 12 13 13 11 14 14 14 13 12 15 15 16 13 11 11 10 17 14 10 11 12
6 6 6 5 5 5 5 6 5 7 10 9 8 8 10 9 9 11 9 10 10 10 11 12 11 13 11 13 11 13 14 15 15 14 16 17 10 12 15 12 11 10 11 12
6 6 5 5 5 5 5 7 5 5 8 9 6 6 5 6 7 8 9 9 10 8 10 11 11 13 12 13 16 9 14 12 15 14 15 8 8 11 10 10 11 10 12 12
6 6 5 5 5 5 4 5 5 7 9 8 8 8 5 4 5 5 10 8 7 8 6 8 9 12 10 14 12 11 9 9 12 13 9 10 9 9 9 9 10 10 10 11
6 6 5 5 4 4 3 5 5 6 8 11 9 5 6 4 4 4 4 5 6 5 6 8 9 11 8 10 10 11 9 10 12 11 10 10 10 10 10 10 9 9 10 11
6 6 5 5 4 3 3 3 4 4 7 11 10 6 5 4 4 4 4 5 5 6 8 9 10 8 9 9 9 11 9 10 12 13 8 12 12 10 9 10 10 10 11 11
6 6 5 5 4 4 5 7 4 3 4 8 12 6 6 4 4 5 6 5 6 6 8 8 7 5 8 11 12 8 6 6 6 8 9 9 9 9 9 10 10 10 11 10
5 5 4 4 4 4 7 7 4 2 3 7 10 9 6 5 5 4 5 5 6 6 7 8 7 7 8 10 13 8 6 6 6 7 9 10 9 10 10 10 9 9 10 10
5 4 4 4 3 3 5 3 2 2 5 6 10 11 8 5 7 7 4 7 7 6 7 7 8 7 8 12 8 7 6 6 7 8 8 8 8 10 10 9 10 10 11 11
4 4 4 4 5 7 5 2 2 2 5 9 9 11 12 5 7 6 5 6 9 5 9 8 8 9 12 9 7 7 6 7 9 8 8 8 8 10 10 10 10 11 11 12
4 4 6 8 6 3 2 3 6 7 7 7 11 8 10 7 7 8 8 7 10 12 9 7 10 11 6 6 5 5 5 7 8 9 10 8 10 11 11 11 10 10 11 11
5 7 8 5 4 4 6 9 9 9 11 9 8 8 10 5 9 9 8 9 8 13 10 11 11 11 8 6 6 5 6 7 7 8 8 8 9 11 11 11 11 11 11 11
6 6 5 5 7 9 12 12 10 11 12 9 9 8 7 7 6 8 8 10 9 13 8 11 13 9 7 6 7 6 7 7 8 9 10 9 10 10 10 11 11 11 10 10
5 7 9 10 10 14 15 15 12 12 10 8 8 9 7 6 6 9 9 12 11 8 12 13 10 8 7 6 6 6 7 7 8 9 9 9 10 10 10 10 10 10 10 10
9 12 15 14 14 13 12 11 10 9 9 9 9 10 8 6 8 8 12 10 9 13 14 13 9 8 6 6 5 7 8 8 8 9 10 10 10 10 10 10 10 10 11 10
11 12 16 13 10 9 8 8 8 8 7 10 10 9 8 8 9 8 9 12 14 13 13 12 8 8 6 5 6 7 7 8 8 9 10 10 10 10 10 10 10 10 10 10
11 11 12 10 11 10 9 9 9 7 8 8 8 11 11 11 9 12 12 12 14 12 12 9 8 7 6 5 5 6 6 7 8 8 9 9 10 10 10 9 10 10 10 10
12 12 10 10 10 10 9 8 8 7 9 11 10 13 13 10 11 12 10 12 11 10 10 8 8 7 6 4 5 6 6 7 7 8 9 9 9 9 10 11 10 9 9 9

GFSNW_con_lsi_174.txt.gz
Lid_Strength_Index
5 5 4 4 4 5 4 3 6 2 0 4 4 6 7 8 7 7 8 7 8 9 10 10 10 11 9 7 7 9 7 9 13 11 7 6 8 9 10 17 16 15 16 15
5 5 4 4 4 4 3 4 4 1 1 7 7 6 7 7 8 8 8 9 8 8 9 13 9 9 8 7 8 9 7 11 15 13 10 8 10 10 10 11 13 17 19 15
5 4 4 4 4 4 3 4 6 4 4 4 7 8 8 8 7 7 7 7 7 8 9 8 10 9 8 7 7 6 7 11 13 16 12 10 12 11 10 12 17 15 14 12
5 5 4 4 4 4 2 4 6 6 8 7 7 7 8 8 9 7 6 8 9 9 13 10 9 9 9 7 7 7 8 13 11 11 11 11 12 12 11 13 12 16 13 13
5 5 4 4 4 4 4 6 7 6 7 7 8 9 8 9 8 8 8 8 7 7 10 10 12 8 8 8 7 8 8 13 11 13 10 10 12 10 10 10 10 10 10 11
5 5 5 4 4 4 5 5 4 6 8 8 8 8 8 8 7 7 6 6 7 8 7 6 6 6 6 6 8 8 10 13 14 15 10 11 14 13 11 10 10 10 15 10
5 5 5 5 4 4 4 5 5 7 9 8 9 9 8 8 7 8 6 6 7 6 4 5 5 5 6 6 6 6 11 13 13 16 12 18 12 8 9 10 10 10 10 9
6 5 5 5 5 4 4 4 5 7 9 9 9 8 8 7 7 7 7 6 5 4 6 8 9 9 9 8 7 8 8 12 15 16 16 12 10 9 13 14 13 9 11 10
6 6 6 5 5 5 4 4 3 6 9 8 8 9 8 9 8 8 7 5 4 5 7 9 12 12 11 11 10 7 8 9 14 14 18 19 13 8 8 10 15 10 10 10
6 6 5 5 5 5 5 5 3 6 9 7 7 8 9 7 8 10 8 7 7 5 9 12 12 12 9 12 12 12 12 12 15 15 16 12 8 7 8 16 14 10 11 10
6 6 6 5 5 5 5 6 4 7 9 8 7 6 7 7 8 11 8 8 8 8 11 10 11 11 9 11 10 13 14 14 14 13 16 17 7 8 14 10 10 11 10 10
6 6 6 5 5 5 4 7 4 4 8 7 5 5 4 5 5 7 7 8 8 7 9 8 9 11 9 10 15 7 13 12 14 14 15 6 5 7 6 8 10 10 11 10
6 6 6 5 5 5 4 4 3 6 8 7 6 6 4 3 3 2 8 7 6 6 3 7 8 11 8 13 12 10 8 7 12 13 8 7 6 5 7 9 9 9 9 10
6 6 6 5 5 5 4 4 4 4 7 10 6 3 4 3 2 2 2 3 2 3 4 7 9 11 7 10 10 10 8 8 10 10 8 7 6 8 9 9 9 9 9 10
6 6 6 5 5 5 4 3 4 3 7 10 8 4 3 2 2 2 2 3 5 6 8 9 9 7 8 7 8 10 7 9 11 12 7 8 8 9 8 10 10 9 10 10
6 5 5 5 5 4 4 6 3 3 3 8 10 4 4 2 2 2 2 3 5 5 7 7 6 5 8 11 11 6 5 5 5 7 5 6 8 8 9 10 10 9 10 10
6 5 5 5 4 4 6 7 5 3 3 7 9 7 3 3 3 2 3 3 5 6 7 8 7 7 7 10 12 7 5 4 5 4 7 9 8 8 8 9 9 9 9 11
5 5 5 4 4 4 5 3 2 2 4 4 9 9 6 3 5 6 3 6 6 6 7 6 8 7 8 12 7 6 5 4 5 6 8 7 7 8 9 9 9 10 11 12
5 5 4 4 4 6 4 3 2 0 3 8 9 10 10 4 5 4 4 5 9 6 9 8 7 9 12 9 7 7 6 7 7 8 7 7 8 9 10 9 10 11 11 12
5 5 5 7 5 4 3 4 6 6 7 7 9 7 9 6 6 7 7 6 9 11 8 6 10 10 6 6 5 5 5 6 8 8 9 8 9 10 10 10 10 11 12 12
5 6 7 4 3 4 5 7 8 9 10 8 7 7 8 5 9 8 7 8 7 11 10 11 11 11 8 5 6 5 5 6 7 7 8 7 9 10 11 11 11 11 11 12
6 6 4 5 6 7 10 10 9 9 11 7 7 7 6 5 5 9 8 9 8 12 7 11 13 10 8 6 6 5 6 7 8 8 8 9 10 10 10 11 11 11 11 12
3 7 9 9 8 12 13 14 12 10 8 7 7 8 7 5 5 8 9 11 11 7 11 13 11 10 8 6 5 6 6 7 7 8 8 9 10 9 10 11 10 10 11 11
7 10 13 11 12 11 10 10 9 8 7 7 7 8 8 6 7 7 11 8 9 13 14 13 11 10 7 5 5 6 7 7 8 9 9 10 10 10 10 10 10 10 11 11
9 10 14 12 9 8 7 6 7 7 6 6 8 8 7 9 9 7 8 11 14 13 13 12 12 9 7 5 5 6 7 7 8 9 9 10 10 10 10 10 10 10 10 11
9 10 12 9 10 9 8 7 7 5 6 6 7 9 10 11 9 10 11 13 14 13 11 11 11 9 6 5 5 5 6 6 7 8 8 9 10 10 10 10 10 10 10 10
11 10 8 8 8 9 8 7 7 5 7 10 8 12 12 9 11 11 9 11 9 8 9 9 10 9 6 4 4 5 5 6 7 8 8 9 9 9 10 11 10 10 9 10